This is the latest recevied weather packets stored in our database for station/object W5ITZ. If no packets are shown the sender has not sent any weather packets the latest 10 day(s).
| Time | Temp. | Humidity | Pressure | Rain* | Wind** | Luminosity | Snow |
|---|---|---|---|---|---|---|---|
| 1777583635 | 30.56° C | 61% | 1007.9 hPa | 0 mm | - | 594 W/m² | - |
| 1777583334 | 30° C | 63% | 1008.2 hPa | 0 mm | - | 683 W/m² | - |
| 1777583029 | 30° C | 62% | 1008.2 hPa | 0 mm | - | 659 W/m² | - |
| 1777582726 | 30° C | 61% | 1008.3 hPa | 0 mm | - | 661 W/m² | - |
| 1777582421 | 30° C | 62% | 1008.4 hPa | 0 mm | - | 491 W/m² | - |
| 1777582121 | 30.56° C | 61% | 1008.7 hPa | 0 mm | - | 453 W/m² | - |
| 1777581815 | 30.56° C | 62% | 1008.8 hPa | 0 mm | - | 672 W/m² | - |
| 1777581514 | 30° C | 63% | 1008.8 hPa | 0 mm | - | 422 W/m² | - |
| 1777581210 | 30° C | 62% | 1009 hPa | 0 mm | - | 434 W/m² | - |
| 1777580904 | 30° C | 64% | 1009.1 hPa | 0 mm | - | 438 W/m² | - |
| 1777580604 | 29.44° C | 64% | 1009.2 hPa | 0 mm | - | 475 W/m² | - |
| 1777580301 | 29.44° C | 65% | 1009.2 hPa | 0 mm | - | 404 W/m² | - |
| 1777579997 | 29.44° C | 66% | 1008.9 hPa | 0 mm | - | 391 W/m² | - |
| 1777579692 | 29.44° C | 66% | 1009 hPa | 0 mm | - | 737 W/m² | - |
| 1777579392 | 28.89° C | 67% | 1009.2 hPa | 0 mm | - | 610 W/m² | - |
| 1777579086 | 28.89° C | 68% | 1009.1 hPa | 0 mm | - | 363 W/m² | - |
| 1777578781 | 28.89° C | 68% | 1009.2 hPa | 0 mm | - | 309 W/m² | - |
| 1777578476 | 28.89° C | 66% | 1009.3 hPa | 0 mm | - | 297 W/m² | - |
| 1777578171 | 28.89° C | 68% | 1009.3 hPa | 0 mm | - | 310 W/m² | - |
| 1777577867 | 28.33° C | 68% | 1009.4 hPa | 0 mm | - | 303 W/m² | - |
| 1777577563 | 28.89° C | 69% | 1009.4 hPa | 0 mm | - | 257 W/m² | - |
| 1777577261 | 28.89° C | 68% | 1009.6 hPa | 0 mm | - | 282 W/m² | - |
| 1777576956 | 28.89° C | 68% | 1009.5 hPa | 0 mm | - | 360 W/m² | - |
| 1777576652 | 28.89° C | 69% | 1009.7 hPa | 0 mm | - | 357 W/m² | - |
| 1777576347 | 28.89° C | 71% | 1009.7 hPa | 0 mm | - | 374 W/m² | - |
* Rain latest hour (hover to see other rain measurements)
** Current wind speed in m/s (hover to see current wind gust speed)